NOAA 16 DEB, 41054

Orbit data source: Space-Track

NOAA 16 DEB, 41054 is space debris in SSO originally from a launch on Thu, 21 Sep 2000 UTC launched from the Air Force Western Test Range (AFWTR). Debris objects in space refer to the collection of defunct objects orbiting the Earth. Examples of debris include non-operational satellites, rocket bodies, and fragments generated from explosions, collisions, or faulty payload assembly.

Loading next visibility...
Identifier
41054, 2000-055M
Orbit
SSO
Country
Flag of USUS
Related business
Manufacturer
Unknown
Mission
Spacecraft
Bus & Motor
Unknown
Mass
Unknown
Launch date (UTC)
2000-09-21 (26 years ago)
Launch vehicle
Unknown
Launch site
Air Force Western Test Range (AFWTR)
Object type
Payload
Rocket body
Debris
Shape & HBR
Unknown shape, 0.1 m
Radar Cross Section
Medium (>0.1 m² and <1 m²)

Expand to show TLE details & history
Last TLE update: 1 day ago

TLE from 1 day ago
0 NOAA 16 DEB
1 41054U 00055M   26254.62237059  .00000597  00000-0  22705-3 0  9997
2 41054  98.9910 144.9830 0063156 240.7739 118.7119 14.33736604562855
Epoch: 2026-09-11T14:56Z
TLE epoch observation values (Epoch: 2026-09-11T14:56:12.818Z)
Latitude
-0.00004°
Longitude
-69.71348°
Altitude
804.131 km
Speed
7.44 km/s
True Right ascension
09h 39m 55s
True Declination
0° 00' 00"
Sunlit
Object was in daylight at epoch
Visualization orbit readout
Latitude
Unknown
Longitude
Unknown
Altitude
Unknown
Speed
Unknown
Apparent Right ascension
Unknown
Apparent Declination
Unknown
Sunlit
N/A
Visualization observer readout
Local Sidereal Time
09:37:08
Azimuth
Unknown
Elevation
Unknown
Doppler factor
Unknown
Orbital elements
Apogee altitude
821.607 km
Perigee altitude
731.237 km
Semi-major axis
7,154.559 km
Eccentricity
0.00632
Inclination
98.991°
RAAN
144.983°
Arg. of periapsis
240.7739°
True anomaly
119.34422°
Mean anomaly
118.7119°
Eccentric anomaly
119.0283°
Mean motion
3.58648 °/min
Orbital period
100.38 mins
BSTAR
0.00022705
Loading maneuver chart data...
Computing Atmospheric mass density...
Loading historical data...
Loading historical data...
Loading historical data...
Loading historical data...
Loading historical data...
Loading historical data...
Loading historical data...

Documentation

Showing up to 5 results
|